Theta_e
307 306 306 306 307 307 309 308 310 307 306 307 306 305 304 304 305 305 305 304 304 304 303 304 305 306 307 310 310 309 311 309 308 306 303 306 306 307 306 305 305 305 303 303
307 306 305 305 305 305 305 306 307 306 305 305 304 304 304 304 303 303 303 303 303 302 302 303 304 306 307 309 309 308 308 307 305 305 300 302 302 302 301 301 300 300 299 300
304 303 304 305 306 306 305 305 305 305 304 304 304 304 304 302 302 303 304 304 302 301 303 303 304 305 306 308 308 307 307 306 305 303 300 299 299 298 298 298 297 297 298 298
305 303 304 304 305 304 304 303 303 302 303 303 303 303 302 301 301 304 303 300 301 302 303 303 303 303 306 307 307 306 305 304 304 302 300 298 298 298 298 298 297 297 297 297
306 305 304 304 304 302 302 302 302 302 302 302 302 300 301 301 301 301 301 300 302 303 303 302 302 304 306 307 306 305 304 303 302 301 300 299 297 297 297 297 297 297 297 297
305 304 303 302 302 302 302 301 302 302 301 301 300 301 302 300 301 301 300 299 304 304 303 301 302 303 304 305 304 304 303 302 300 301 300 298 297 296 296 297 297 298 298 297
305 304 302 302 302 302 302 302 302 301 300 300 301 301 300 300 300 300 299 301 305 304 302 300 301 301 303 304 304 302 301 301 300 300 300 299 298 297 299 298 299 297 296 296
304 304 303 302 301 301 302 301 300 300 300 300 299 299 300 300 300 299 299 303 305 302 301 299 300 300 303 302 303 301 300 299 300 300 300 299 299 298 297 298 297 297 296 296
302 303 302 301 301 300 300 301 301 300 300 300 299 299 299 300 300 299 300 305 304 300 300 298 297 298 299 299 300 299 296 297 299 299 299 298 298 298 297 297 297 297 297 295
301 301 301 300 300 299 299 299 299 299 299 299 299 299 299 299 300 299 302 305 303 300 299 297 297 297 297 298 298 296 295 296 297 297 297 296 297 298 298 298 297 298 295 293
301 301 301 300 299 299 299 299 299 299 299 299 299 299 299 299 299 301 303 304 302 299 299 297 296 297 298 298 296 294 294 294 295 295 296 294 295 296 297 298 298 299 297 294
302 301 301 300 300 300 300 300 300 299 300 300 299 299 299 300 300 302 304 302 301 299 298 297 296 296 297 298 297 294 294 294 294 293 294 293 294 294 294 296 296 297 297 296
300 299 299 299 299 299 300 299 299 300 300 300 299 299 300 300 300 302 302 301 300 299 297 296 296 296 295 296 295 294 295 294 294 293 293 293 292 292 292 291 292 293 294 295
299 299 300 300 301 301 300 300 299 299 299 299 299 300 300 299 300 302 301 300 299 299 297 297 296 296 295 295 294 294 294 293 292 292 292 292 292 292 292 293 292 291 291 291
300 300 300 299 299 299 299 299 299 300 299 299 300 299 299 298 299 300 300 300 299 299 296 296 295 296 295 294 294 294 293 292 292 292 292 292 292 291 292 291 291 291 289 289
299 298 299 299 299 299 299 299 299 299 300 299 298 298 297 297 299 299 300 299 299 299 299 298 298 297 296 295 294 294 293 292 291 292 291 291 291 291 291 290 290 289 289 288
298 299 299 298 298 299 299 298 297 297 296 296 295 296 296 297 298 298 299 299 298 298 297 297 297 296 297 297 296 294 293 292 291 290 290 290 290 290 290 289 289 288 288 288
296 296 296 296 296 298 297 296 295 294 294 294 294 295 296 297 297 298 298 298 299 298 297 296 296 296 296 295 294 294 292 291 291 290 290 289 289 289 289 289 288 288 288 288
294 293 294 294 294 294 294 293 293 293 294 294 294 294 295 295 297 298 298 298 299 298 296 295 296 296 295 294 294 294 293 291 290 289 290 289 289 289 289 288 288 289 288 287
293 292 292 292 293 292 292 292 292 293 293 293 293 294 294 294 295 295 296 296 296 297 296 296 296 294 293 292 292 292 292 291 290 290 289 289 288 288 288 288 288 288 287 286
292 292 292 292 292 291 291 291 292 292 292 292 293 293 293 294 294 294 294 294 295 295 294 295 295 293 292 291 291 291 291 290 290 289 289 289 288 288 288 288 288 287 287 286
292 291 291 291 291 291 291 291 290 290 291 291 291 292 292 292 292 293 293 293 293 294 293 293 292 292 291 290 290 290 289 289 289 288 288 288 287 287 287 286 286 286 286 286
291 291 291 291 291 290 290 289 289 289 289 290 291 291 290 290 291 291 291 291 292 292 292 292 291 291 290 290 289 289 289 289 289 288 288 288 287 287 287 286 286 286 286 285
291 291 290 290 290 290 290 289 289 288 288 289 289 290 290 289 289 289 289 290 291 291 290 290 290 290 290 289 289 289 288 288 288 288 288 288 287 287 287 286 286 286 285 285
291 291 290 290 291 291 291 290 289 289 289 288 288 288 289 289 289 289 289 289 290 290 290 289 289 289 289 289 288 288 288 288 287 287 287 287 286 286 285 285 285 285 284 284
293 293 292 292 292 292 291 290 290 290 289 289 288 288 289 289 289 288 288 289 289 289 289 288 289 289 288 288 288 287 287 286 286 286 286 285 285 285 284 284 283 283 283 283
293 292 292 292 292 292 291 290 289 289 288 287 288 288 288 288 288 288 289 289 289 288 288 288 288 288 287 286 286 285 285 284 284 284 284 284 284 283 283 283 283 283 282 282
Wind_Speed
6 6 8 11 15 18 21 20 17 18 23 23 22 23 25 28 32 36 36 37 40 39 41 40 43 45 42 41 44 48 43 37 28 29 28 32 34 37 37 39 41 42 41 47
3 10 12 17 18 19 21 22 24 24 24 21 25 24 27 28 32 35 35 37 37 41 45 44 44 40 39 42 42 44 42 33 27 23 23 25 26 29 33 34 36 39 47 53
3 9 10 13 18 19 20 21 18 21 19 17 18 18 22 25 29 31 30 33 40 42 46 44 42 38 38 40 35 40 39 30 24 20 25 20 24 28 32 34 39 43 49 49
3 5 6 7 2 6 11 14 14 16 17 16 17 21 22 26 29 24 30 37 40 41 46 40 44 39 33 34 30 35 35 26 22 18 21 21 24 27 31 35 39 41 44 43
4 10 12 15 11 11 12 15 12 14 16 15 15 22 23 21 25 31 34 37 36 39 39 46 38 31 33 28 29 29 32 19 21 20 17 17 22 24 32 32 35 36 38 40
7 8 6 1 9 8 7 14 19 8 4 11 18 13 13 28 32 33 34 37 38 37 31 40 35 28 29 30 27 28 26 20 16 17 17 16 20 26 29 29 32 33 33 32
10 10 8 8 5 9 8 6 4 7 13 16 14 15 28 31 32 34 35 34 36 25 33 38 32 28 24 24 27 24 17 22 15 15 16 17 19 23 25 31 30 31 30 27
10 11 15 4 7 17 15 13 17 15 18 20 23 25 27 31 31 34 34 35 30 32 40 35 29 28 27 26 26 24 14 16 13 14 17 20 23 26 29 30 32 32 29 27
8 9 7 8 14 15 17 24 22 24 27 24 26 26 29 31 32 31 31 31 26 28 34 32 28 24 26 25 21 17 10 12 11 14 17 20 25 29 31 30 31 32 29 27
7 12 17 24 23 24 26 29 30 26 26 26 27 28 30 31 31 31 29 27 25 26 33 32 29 25 22 21 17 9 7 10 8 12 14 19 23 27 29 30 31 33 30 30
17 17 19 22 22 22 23 24 25 25 25 27 29 30 32 31 29 27 26 21 21 23 30 28 25 22 19 16 12 8 3 6 6 9 13 19 20 25 28 28 30 32 31 31
13 18 18 19 22 22 25 28 29 29 30 29 28 29 28 27 24 25 18 17 19 26 25 23 20 18 14 12 11 8 3 1 2 8 12 16 18 21 23 24 24 24 25 25
18 20 22 26 27 26 28 29 29 26 25 27 27 24 22 23 27 17 13 12 16 22 21 18 16 14 11 9 9 7 6 2 3 4 11 14 17 19 22 20 18 17 18 17
18 19 23 25 27 25 22 24 24 24 24 23 22 16 16 25 16 10 9 10 13 17 19 17 15 13 12 10 8 6 5 4 6 8 10 13 12 11 12 16 19 17 13 13
14 16 20 20 19 19 18 18 18 18 18 17 12 17 21 16 10 5 7 7 9 13 14 14 14 14 12 12 10 9 6 6 6 6 6 6 9 10 8 10 12 14 15 12
12 11 11 12 16 14 12 11 11 10 8 9 11 14 14 11 9 4 3 4 6 8 10 12 14 13 12 10 10 10 8 8 8 9 10 9 9 9 10 9 10 13 16 18
6 11 7 10 14 11 6 5 9 11 9 7 8 11 13 9 7 7 5 4 5 6 8 9 11 10 11 10 10 9 8 8 9 9 9 10 10 10 11 10 10 12 14 19
7 9 9 9 11 8 4 8 7 5 5 4 3 3 3 1 5 6 6 4 4 5 7 8 9 10 9 7 7 6 6 7 7 8 8 8 10 10 10 12 13 14 14 16
3 2 2 1 1 2 1 2 2 3 3 2 4 5 6 4 2 3 5 4 4 4 6 8 8 8 6 5 4 4 5 7 8 8 9 9 10 11 11 12 12 11 12 15
4 4 5 5 3 3 3 2 2 3 3 4 4 3 4 4 3 2 1 0 2 4 5 7 9 7 6 4 2 3 5 5 6 9 10 11 11 11 12 11 11 11 13 15
2 2 3 3 4 4 3 3 3 3 4 4 4 3 3 3 3 2 2 3 4 4 4 5 6 6 4 3 2 3 5 7 9 10 10 11 12 11 11 11 12 12 12 12
3 3 3 3 3 2 2 3 4 5 4 4 5 5 2 3 4 5 4 2 4 3 2 2 3 4 3 4 5 7 8 9 10 10 11 11 11 12 12 12 12 12 11 10
4 3 4 4 3 1 2 3 5 6 5 3 2 2 4 3 1 2 2 2 2 1 1 3 4 5 6 8 9 10 11 11 12 12 12 12 11 11 11 10 10 9 9 8
6 4 3 2 1 1 2 4 3 6 8 5 4 1 2 2 4 3 5 5 5 5 7 7 8 8 10 11 11 12 12 13 13 13 12 11 11 10 10 9 9 7 6 6
6 5 5 4 3 3 3 3 3 3 3 2 2 2 3 2 3 6 8 8 9 9 10 9 9 9 10 10 10 11 12 12 11 11 11 10 10 10 9 9 8 7 6 6
6 5 5 5 4 2 2 3 2 2 2 3 2 1 2 4 6 8 10 10 10 10 11 11 10 10 11 11 11 11 11 11 11 11 11 11 11 11 11 11 10 8 7 6
7 7 6 5 5 3 2 4 3 3 3 4 3 2 2 4 7 8 9 9 10 11 11 11 10 10 11 11 11 11 12 12 12 12 12 12 12 12 11 11 10 8 7 6
Wind_Direction
248 224 243 237 225 222 214 218 233 262 265 277 289 293 300 310 312 310 311 311 309 317 317 313 313 311 307 309 311 317 310 305 287 315 277 249 236 230 224 220 218 215 209 200
247 241 248 257 249 249 248 250 248 269 275 272 282 309 311 315 314 307 307 311 317 313 312 309 308 306 303 308 310 316 312 307 289 289 288 252 236 227 214 207 206 200 194 191
230 209 235 260 247 240 248 253 255 259 277 298 300 299 316 304 312 312 319 310 313 312 312 307 304 301 298 304 308 314 311 307 292 290 275 245 222 205 197 194 189 187 186 188
226 152 223 254 344 234 248 259 270 279 280 290 308 299 300 308 303 316 314 314 311 310 313 307 305 303 299 298 304 305 306 303 294 277 271 251 226 212 202 195 190 189 189 189
209 215 262 277 243 216 239 265 277 280 281 283 304 306 301 319 324 310 307 312 307 309 307 316 316 305 297 296 301 299 298 302 279 264 258 247 224 212 199 192 192 191 185 182
188 242 246 53 65 44 357 277 258 222 304 301 310 304 311 325 313 308 308 309 311 313 314 319 318 308 301 297 302 301 291 287 265 251 240 224 211 201 192 191 186 184 182 186
224 237 249 260 292 150 240 258 304 263 304 309 308 310 311 309 307 309 311 312 314 316 316 320 323 318 310 310 305 304 284 282 273 238 231 219 205 198 191 190 188 183 179 178
230 242 251 240 229 236 254 291 299 284 291 305 307 304 300 302 306 311 313 314 320 324 321 323 321 320 317 318 311 306 288 276 269 236 221 211 198 190 188 187 179 176 179 177
199 222 227 216 255 263 247 263 277 291 292 297 294 295 299 301 306 309 311 315 327 326 335 330 325 319 314 319 318 309 300 271 258 235 216 208 196 191 188 187 181 180 184 184
256 240 248 262 267 270 271 273 278 279 283 293 291 292 297 301 305 308 315 317 327 330 337 335 331 328 327 331 333 333 284 254 238 216 207 200 199 196 193 188 188 187 188 190
249 265 275 273 273 278 281 282 283 284 285 287 289 289 291 297 301 309 309 319 330 334 340 339 334 334 339 340 353 354 323 232 205 206 195 194 192 198 199 200 201 196 196 199
258 271 275 280 287 292 287 283 283 285 286 285 285 287 289 294 299 305 308 320 334 342 343 344 342 344 354 355 9 0 30 94 137 196 177 187 186 193 204 205 202 206 209 209
274 280 281 284 284 282 280 280 280 285 289 288 283 283 288 292 296 296 296 322 338 344 346 351 353 358 8 17 16 23 32 53 127 166 177 176 183 187 182 188 198 203 214 224
278 288 283 282 288 286 288 284 284 282 277 276 273 279 282 294 290 283 291 322 337 346 349 356 2 8 14 19 28 39 65 91 142 165 168 159 161 172 184 184 184 182 193 206
284 287 286 295 294 284 279 274 266 261 263 266 266 283 287 279 276 273 295 333 335 352 346 2 3 11 16 26 26 32 57 91 109 120 124 132 145 157 146 160 180 180 174 175
293 298 290 294 289 279 268 278 281 290 308 288 285 287 288 290 275 254 299 313 347 2 8 12 17 16 15 27 33 35 49 67 79 92 99 104 125 135 139 151 167 169 170 168
292 287 307 303 309 313 340 318 290 288 287 296 285 277 287 279 231 217 246 299 341 353 8 8 19 23 23 15 23 33 42 56 78 91 104 116 125 130 141 140 145 151 167 173
279 281 284 285 290 288 284 300 290 289 296 304 326 316 325 221 200 225 234 274 294 342 358 3 9 8 3 13 41 47 66 86 92 93 99 110 124 127 134 143 149 163 169 170
52 63 33 37 302 251 211 258 300 325 314 340 7 19 24 17 334 257 259 265 292 319 340 356 0 2 1 3 26 42 71 94 107 118 120 120 123 134 140 147 152 159 162 164
71 83 89 97 107 93 74 56 27 4 11 16 17 31 19 12 19 38 104 2 319 317 331 344 345 356 359 14 65 103 113 113 108 113 123 126 126 132 138 142 148 151 156 158
119 125 112 113 107 93 81 62 40 31 30 26 25 24 22 14 17 8 48 328 338 329 346 357 347 354 9 45 75 110 126 127 119 118 121 126 127 131 133 140 142 140 151 153
165 170 165 160 150 120 83 57 30 22 20 27 28 21 5 349 17 349 3 338 352 345 2 12 29 33 71 91 105 111 118 121 118 118 118 117 117 118 121 123 129 137 143 152
176 166 179 181 176 157 44 15 0 345 330 338 354 12 39 44 330 218 315 37 86 91 64 95 89 86 93 105 108 110 113 114 113 114 114 114 116 122 125 132 135 141 148 152
185 181 175 166 190 246 297 310 332 347 12 358 352 30 100 74 16 82 95 104 113 123 120 108 109 109 111 110 110 111 112 112 112 113 114 116 119 123 125 126 130 136 136 141
188 189 191 208 226 251 263 278 318 331 348 22 10 19 62 81 152 118 120 122 126 124 114 111 118 122 120 120 121 120 119 120 122 124 124 123 122 122 121 124 129 135 140 147
197 212 224 224 226 238 245 257 295 323 327 342 352 25 79 113 117 126 135 133 129 126 123 125 127 129 127 127 127 125 123 121 122 120 121 123 124 124 123 124 129 133 135 133
227 230 233 235 234 246 247 260 297 271 254 191 197 182 159 144 140 146 145 141 139 140 137 137 139 136 131 128 125 123 122 122 122 123 124 126 127 128 131 131 132 133 129 124